Theta_e
310 321 328 332 335 330 334 340 341 341 340 333 332 332 331 331 332 334 332 338 338 331 336 327 320 322 315 314 316 318 318 319 319 320 321 323 323 323 326 324 321 321 327 330 330 331 331 329 329
322 324 330 337 331 335 337 342 341 338 336 334 333 332 329 330 329 329 334 336 336 331 335 337 321 323 318 314 317 318 319 318 319 320 324 327 331 333 333 332 332 331 330 331 332 333 333 332 331
324 329 336 336 341 341 340 339 338 336 334 333 332 328 329 331 329 329 336 337 336 332 334 337 324 323 322 315 317 319 319 319 320 322 324 328 332 333 333 334 334 334 333 333 333 332 333 334 334
325 331 334 338 337 339 342 338 337 336 334 331 331 332 329 328 329 330 336 337 335 333 334 337 327 323 324 316 317 319 320 321 322 323 325 330 336 335 335 336 336 336 334 333 333 333 332 334 335
329 332 332 333 333 335 339 338 336 336 334 332 329 331 331 329 327 329 336 336 333 333 333 338 330 323 324 319 319 320 321 322 322 323 325 328 334 336 337 336 337 337 336 334 334 333 334 333 333
332 332 333 332 331 334 334 333 333 334 333 331 329 329 330 329 329 330 333 337 333 333 333 338 336 323 324 322 320 321 322 323 323 323 324 325 333 338 337 338 336 335 335 335 333 333 332 332 332
332 332 329 330 331 332 332 332 333 334 333 331 330 330 330 331 329 330 332 335 335 334 334 338 341 330 324 324 321 321 323 325 324 325 325 327 333 334 334 334 334 334 334 334 334 332 331 332 331
331 331 331 330 331 330 330 332 333 333 333 331 329 332 332 332 330 329 332 332 335 335 334 336 340 339 341 339 326 323 324 326 327 326 327 329 334 331 331 330 327 327 331 331 332 332 332 333 332
330 331 331 330 329 330 331 331 331 331 331 331 331 332 331 330 329 331 332 332 333 333 335 334 337 337 339 337 338 331 330 331 330 329 332 332 331 331 332 331 329 328 329 330 329 330 331 332 331
332 332 330 330 330 330 330 331 330 331 331 331 330 331 330 331 331 332 331 333 333 333 334 335 336 337 338 336 338 342 338 335 336 336 334 334 333 332 332 330 330 328 328 328 328 329 330 330 326
332 333 332 332 330 330 330 331 330 330 331 330 330 330 331 331 331 333 332 331 331 332 333 334 337 338 338 337 338 338 335 334 334 334 333 334 333 332 332 331 331 331 329 328 327 329 329 326 328
332 332 332 331 331 331 331 331 331 331 331 330 330 329 329 330 332 332 332 332 331 331 332 334 336 339 340 337 337 334 331 331 331 330 334 334 333 333 332 332 331 330 329 328 327 327 327 328 327
330 331 331 331 331 331 331 332 332 331 330 330 329 328 328 328 329 328 330 331 331 330 332 334 336 339 341 340 335 331 330 329 329 330 332 332 332 332 333 332 331 329 329 328 328 327 327 327 327
327 327 329 330 331 332 331 331 330 330 329 327 326 326 326 326 325 325 327 330 333 330 331 333 336 339 340 339 333 332 332 329 331 330 332 332 332 332 332 332 331 330 329 329 329 327 328 327 327
325 327 327 329 329 330 330 330 329 327 325 325 324 326 325 324 324 326 326 329 332 332 331 332 335 338 339 336 334 332 330 331 330 331 333 333 333 332 332 332 331 331 330 330 331 329 328 328 328
324 326 328 327 327 327 326 328 327 326 325 325 325 325 324 324 326 325 328 329 331 333 331 331 332 336 337 334 333 331 331 331 330 332 333 334 334 333 333 332 331 330 331 330 330 330 327 328 327
324 327 327 327 325 324 324 327 326 325 325 325 326 327 325 325 327 327 329 330 331 332 331 330 331 333 334 334 332 332 332 332 331 333 333 333 334 333 332 332 331 330 332 330 330 329 328 328 327
326 326 327 329 327 322 324 325 325 324 325 326 327 326 326 326 327 328 328 330 330 331 330 331 331 332 334 333 333 332 331 332 333 333 332 333 333 332 332 330 330 330 330 329 330 329 329 328 327
325 327 328 327 326 325 326 326 326 326 327 328 328 327 326 329 329 328 330 329 330 330 331 331 331 333 333 332 331 330 331 332 332 332 333 333 333 332 331 331 330 329 330 329 329 328 328 327 328
323 325 327 327 326 327 325 325 328 328 328 328 327 326 328 330 331 331 331 330 330 331 332 333 333 334 333 332 331 332 333 331 332 332 333 333 332 331 331 330 330 330 329 329 328 328 327 327 328
321 323 325 326 325 325 324 325 327 328 328 327 326 326 325 329 332 333 332 331 331 332 333 333 334 334 333 332 334 334 333 333 332 333 333 333 331 331 331 331 330 329 330 330 329 327 327 329 329
321 320 320 320 322 324 323 329 329 329 328 328 327 326 327 331 332 334 333 333 332 332 332 333 334 334 334 334 333 333 332 332 333 332 332 332 331 331 330 330 330 330 330 329 327 327 329 330 329
318 318 319 320 321 323 323 326 328 328 328 328 327 326 328 332 333 334 333 332 331 332 332 333 334 333 335 334 333 334 333 333 332 332 332 333 332 331 331 331 330 330 330 328 327 328 330 331 329
317 318 320 321 322 326 325 327 329 330 330 329 327 325 330 334 334 333 332 331 331 331 332 333 334 335 335 335 335 334 334 333 332 333 332 333 332 332 331 330 331 330 329 328 328 329 330 330 330
317 320 324 326 328 329 327 329 330 328 327 325 325 327 333 334 334 333 333 333 332 331 332 332 334 334 334 334 334 332 333 333 333 332 332 332 332 332 331 331 331 330 329 328 329 330 330 331 330
318 321 322 326 331 330 328 330 329 326 326 326 325 325 332 334 334 334 333 333 331 331 332 332 333 333 333 333 332 331 333 332 332 332 332 332 332 333 332 332 331 330 330 329 329 330 330 330 331
318 323 322 327 328 326 330 328 325 324 325 324 327 326 332 335 334 334 333 332 331 332 332 332 331 331 332 332 332 332 333 333 332 333 333 333 333 332 332 331 331 330 330 328 330 330 331 331 329
320 320 324 324 329 330 326 326 326 326 326 325 328 330 333 335 334 333 333 332 331 332 332 331 330 331 332 332 332 333 333 333 331 332 332 333 333 332 332 331 331 330 329 328 329 330 331 329 331
318 321 322 323 324 328 329 326 324 327 325 328 331 332 336 335 334 333 332 331 332 332 332 330 330 331 332 332 333 334 333 332 331 332 332 333 333 332 332 331 331 330 329 329 330 330 330 330 331
318 319 322 323 325 324 325 323 327 328 330 330 330 333 336 335 333 332 332 332 332 332 331 329 329 330 331 331 333 334 332 332 332 332 332 332 332 332 331 331 330 331 331 331 330 330 330 331 331
Wind_Speed
12 12 8 6 6 5 9 7 4 7 7 0 2 6 5 9 6 6 5 13 12 23 24 31 28 26 23 20 18 16 14 11 10 9 9 9 9 8 8 8 8 8 6 4 4 4 4 4 5
13 9 7 2 7 10 11 6 10 2 3 5 7 10 10 12 5 4 6 17 15 23 24 28 31 27 24 22 19 17 15 13 11 10 11 11 11 10 10 10 10 9 8 8 7 6 6 6 6
14 7 6 5 9 10 4 10 4 2 3 3 4 4 2 3 3 2 2 20 17 23 23 26 31 29 26 24 21 18 16 14 12 12 12 13 13 13 13 13 13 13 11 11 10 9 9 8 8
12 7 5 9 12 9 8 7 2 6 5 3 3 6 3 4 0 2 7 20 17 22 23 24 29 31 28 25 22 20 18 16 13 13 13 13 13 15 16 15 14 15 14 14 13 12 13 11 11
11 5 10 12 14 11 8 11 7 9 3 4 2 2 4 3 4 2 9 19 18 20 23 21 28 32 30 28 24 21 19 17 14 14 13 13 14 16 17 16 16 17 18 17 17 15 15 14 14
8 6 10 12 15 9 11 11 10 12 7 2 5 6 3 5 1 3 7 16 14 17 22 21 26 32 32 29 26 23 21 19 17 16 15 13 13 15 15 15 15 15 17 19 18 18 18 16 15
15 9 14 15 13 11 13 6 10 13 6 5 6 8 1 4 7 2 7 14 16 16 20 20 21 31 34 31 28 25 23 21 19 18 17 14 14 14 13 14 14 14 14 16 15 16 16 15 17
9 9 17 13 14 14 4 8 3 7 5 3 4 6 5 9 6 4 8 13 17 18 20 21 22 24 26 25 29 26 24 21 19 19 18 16 16 15 14 15 15 13 12 14 15 15 16 16 16
12 11 13 19 14 12 5 9 2 2 10 10 10 11 8 8 7 10 9 13 19 21 22 23 22 23 24 23 21 25 23 20 19 19 18 17 15 15 15 15 17 16 14 13 14 14 15 15 14
13 15 21 20 14 14 8 9 8 9 12 16 17 12 10 11 13 15 14 13 20 24 23 24 24 23 22 21 20 18 18 17 16 15 13 13 14 15 15 15 14 16 15 14 14 13 12 12 15
21 23 19 22 18 12 15 18 16 17 15 19 17 16 17 20 20 17 18 18 20 25 24 25 24 23 24 21 19 17 17 15 14 15 14 13 13 14 15 15 15 13 13 13 12 12 12 13 12
28 25 24 24 23 19 19 21 21 19 19 24 21 17 22 23 18 19 20 22 21 21 25 26 26 24 22 21 21 18 16 14 14 12 12 12 13 14 15 16 14 13 14 12 11 13 12 13 14
31 27 23 24 26 20 20 24 29 25 22 24 23 20 21 21 22 28 27 25 21 21 24 27 26 26 23 23 20 18 16 14 13 12 11 12 13 15 15 16 16 16 15 15 13 13 13 12 13
25 28 28 26 25 22 22 26 27 24 23 25 23 22 21 22 23 29 29 25 21 19 23 25 28 27 25 24 21 17 15 13 13 12 11 12 13 14 15 16 17 18 18 17 14 13 13 13 13
25 26 25 23 25 26 22 27 28 21 25 23 20 19 21 21 26 22 26 25 23 18 20 26 28 28 27 24 21 17 15 13 12 12 12 12 14 15 16 17 17 17 18 18 15 14 14 14 13
21 25 24 24 22 23 18 31 23 19 21 20 18 20 21 24 23 25 24 23 22 17 21 25 27 28 27 24 20 16 14 12 12 11 11 12 14 16 16 16 18 19 18 17 16 15 14 14 13
24 24 30 25 22 20 19 30 21 16 17 15 19 21 21 21 21 23 20 20 19 17 20 24 27 27 26 21 18 14 12 12 11 11 11 12 14 15 15 15 16 17 14 15 14 13 13 13 11
23 26 27 27 21 16 26 29 20 18 21 20 20 20 22 21 21 20 20 16 12 13 18 21 24 24 24 21 16 13 12 11 10 10 12 12 14 14 13 16 17 15 13 13 13 13 12 12 12
26 29 26 23 18 22 24 25 23 18 20 23 22 21 22 20 18 16 9 6 7 11 16 20 23 24 23 19 17 14 12 10 9 10 11 12 12 12 13 14 14 13 13 14 13 12 11 12 10
29 30 29 25 22 24 21 27 26 23 22 23 22 19 20 17 14 10 4 4 9 13 17 21 23 24 21 16 13 9 8 7 7 7 9 10 10 11 11 11 10 10 11 12 12 11 9 9 13
32 31 27 30 21 22 22 27 29 25 27 18 17 21 22 16 15 8 5 8 11 15 19 23 24 23 18 14 11 8 5 5 7 7 8 9 8 8 7 7 9 9 10 10 9 9 11 10 13
33 27 26 25 22 24 22 25 25 21 19 21 21 20 16 11 6 4 8 10 13 16 20 23 22 19 15 13 10 7 5 6 2 5 5 7 7 7 7 7 8 9 8 7 8 10 9 9 13
33 20 23 22 21 25 29 20 22 21 22 24 18 20 13 4 4 7 8 12 16 20 22 22 20 17 14 12 8 7 5 4 4 5 6 8 6 8 8 8 7 7 7 8 8 8 7 6 9
21 17 19 19 17 21 24 23 22 20 27 25 18 17 9 8 7 9 12 17 21 22 21 20 18 15 13 11 7 4 5 5 4 4 7 5 5 7 9 8 7 7 8 9 10 8 7 6 8
25 21 10 12 14 19 19 17 18 16 13 13 10 10 10 9 11 13 16 16 23 23 21 19 16 14 12 10 6 6 6 5 4 5 4 2 4 7 8 9 8 8 8 9 9 8 7 7 8
31 26 13 17 15 16 18 12 16 13 21 23 21 12 9 10 12 15 16 16 22 22 20 17 16 14 12 9 7 7 5 4 3 3 2 3 4 3 6 7 7 7 9 9 10 8 6 6 7
26 27 25 13 12 8 14 17 15 19 21 15 12 15 11 11 13 16 18 20 22 21 19 17 15 13 12 9 8 6 4 2 1 1 2 2 2 4 6 8 7 6 8 10 10 8 6 6 7
25 24 21 16 19 16 12 12 10 7 11 13 14 14 14 13 16 17 17 19 21 20 18 15 14 14 13 9 7 6 3 2 2 2 2 2 3 5 8 8 8 9 9 10 10 7 7 7 7
21 21 21 17 13 16 11 8 9 13 9 11 13 14 14 16 17 18 17 21 21 20 18 15 14 14 13 9 7 5 2 2 3 3 3 3 4 6 9 9 9 10 11 10 8 7 8 8 7
28 22 27 13 21 12 10 5 2 6 1 10 12 11 14 17 18 18 18 20 21 20 18 16 15 14 13 10 7 5 3 1 5 4 3 3 4 5 9 8 8 9 10 10 10 9 7 6 7
Wind_Direction
161 156 172 211 231 241 239 201 264 211 206 207 303 242 258 289 309 337 120 165 163 169 176 187 191 192 192 195 200 202 204 207 216 225 233 232 233 229 229 232 235 247 261 258 250 246 249 246 244
164 166 212 216 252 221 199 188 200 180 351 294 257 249 248 266 283 274 192 176 167 173 177 184 194 197 197 201 205 208 211 216 227 235 238 242 241 236 233 232 238 245 262 267 264 257 254 253 248
169 205 246 230 236 251 222 178 147 213 251 254 235 268 310 254 210 293 76 164 166 178 181 188 199 199 201 206 209 212 217 224 232 239 245 248 250 247 245 244 245 245 250 257 263 263 255 252 247
174 198 234 245 236 239 265 165 167 260 171 219 297 250 188 278 314 194 165 169 173 182 187 194 202 200 205 209 213 216 222 228 235 243 249 254 249 252 254 252 253 249 251 258 255 259 258 260 250
217 242 244 238 249 252 234 266 287 258 257 253 210 253 274 134 211 198 178 181 184 186 191 197 207 203 206 211 215 218 224 231 238 248 255 261 256 257 256 258 258 261 254 253 251 253 257 252 260
202 262 240 243 241 224 247 257 252 245 225 188 217 267 246 68 356 222 208 203 202 193 191 196 210 206 209 215 217 220 225 229 236 244 251 259 259 263 263 262 267 265 259 263 252 252 254 259 261
249 215 250 265 273 256 254 270 233 231 226 194 327 258 315 70 13 245 219 211 208 205 201 198 201 206 212 218 220 222 225 229 235 242 247 253 256 259 258 260 262 264 268 267 268 263 258 261 257
232 257 255 252 258 259 234 209 215 225 253 357 260 260 271 17 356 298 260 228 211 209 208 206 201 203 207 215 223 226 228 230 238 245 249 251 252 254 256 256 271 269 262 266 266 264 262 263 259
227 235 246 248 255 257 185 234 166 300 276 294 268 276 311 329 322 301 280 244 225 213 213 213 208 204 207 210 222 230 233 234 242 250 254 254 255 257 253 255 255 260 273 268 265 261 259 258 255
211 229 234 248 261 267 286 263 285 270 267 276 275 232 259 282 291 292 282 258 237 229 217 212 213 207 207 205 214 218 226 236 243 246 251 251 254 256 254 258 257 267 265 263 261 255 253 252 248
222 238 240 247 248 261 285 277 281 274 270 274 296 304 290 291 289 282 275 280 260 237 224 219 208 211 204 206 206 211 218 231 239 248 247 249 253 254 255 256 258 263 263 266 253 252 245 243 249
239 240 244 255 253 250 266 282 282 270 277 281 291 290 290 292 285 281 273 274 269 254 225 216 210 205 208 205 205 208 214 224 239 247 242 245 247 250 253 253 254 258 255 256 256 255 251 251 249
244 248 256 250 267 265 263 268 269 273 282 279 286 288 279 279 279 277 271 269 263 248 227 215 209 200 201 202 204 205 212 226 239 241 244 242 247 251 253 253 249 250 249 246 245 249 249 252 251
249 249 249 258 253 257 258 265 269 271 276 278 281 284 285 285 280 276 268 265 259 242 225 211 206 200 192 198 198 201 209 225 234 243 245 242 243 250 254 253 250 249 247 247 247 244 244 245 251
257 257 257 247 253 254 261 262 260 265 267 272 284 285 283 284 281 278 272 263 264 245 216 207 202 199 190 192 195 199 213 220 234 244 245 244 245 249 252 254 253 250 247 245 243 242 240 246 245
241 239 247 233 227 240 242 261 263 270 269 279 279 287 292 287 281 279 269 269 265 243 209 200 200 195 188 186 191 198 213 224 235 243 248 251 248 249 255 253 250 247 242 241 237 235 240 239 237
225 234 230 242 232 243 222 259 256 263 271 272 285 292 292 286 282 278 277 267 261 234 202 197 197 191 184 181 185 195 212 224 237 243 249 251 249 251 255 257 253 245 233 234 227 231 232 234 235
222 228 247 257 230 214 245 250 254 257 269 276 285 290 286 283 279 286 282 282 252 208 197 197 187 184 178 173 179 198 215 229 237 242 249 251 252 256 253 259 255 244 229 226 227 229 232 231 223
247 245 240 242 243 252 260 260 260 263 273 279 289 287 288 280 283 281 294 266 192 184 185 182 176 171 169 172 182 200 215 223 237 247 251 248 254 256 261 256 249 233 226 229 228 232 230 222 208
236 245 247 253 242 250 249 267 268 262 271 279 275 281 279 289 282 270 247 191 173 170 172 168 167 167 169 172 186 202 209 228 249 253 249 245 248 262 259 242 228 223 226 227 228 225 210 198 188
228 235 241 251 261 248 259 266 268 264 258 271 263 265 276 271 279 264 189 170 163 162 163 164 165 164 165 168 172 175 190 233 243 235 237 230 240 243 231 220 221 223 226 225 221 205 204 191 184
231 223 244 256 254 251 246 269 265 274 273 262 267 270 257 255 232 192 170 155 157 157 158 157 158 159 161 168 176 190 244 267 233 237 239 234 230 216 210 214 222 224 223 208 201 193 206 196 183
237 230 237 240 248 258 249 259 266 261 265 261 261 264 240 234 215 177 163 151 151 150 152 153 153 158 161 168 179 190 231 189 215 235 242 239 227 209 212 221 222 210 196 192 188 194 204 189 176
224 221 230 236 242 242 246 252 258 264 261 265 257 250 184 170 148 145 142 147 144 148 151 152 154 158 163 168 173 188 174 208 246 253 259 261 231 205 208 210 210 201 185 188 192 195 189 178 183
201 190 196 218 222 241 242 247 251 267 240 258 250 243 156 155 147 146 150 151 148 151 154 153 159 163 166 168 167 167 185 207 244 273 270 255 230 208 195 206 204 187 180 182 189 196 193 192 195
195 192 203 214 226 240 223 247 232 242 252 248 250 242 146 163 148 151 153 151 151 154 157 156 165 164 167 166 162 180 189 222 261 266 282 206 200 204 176 191 191 180 173 177 190 192 190 176 165
195 211 210 253 229 279 210 230 274 257 254 245 233 213 181 163 152 152 152 155 154 158 159 160 166 163 165 163 172 183 183 220 314 249 228 164 154 154 163 168 169 158 165 178 184 191 172 163 155
197 196 202 222 233 226 246 230 237 197 229 229 223 201 177 159 154 154 156 157 158 160 157 161 166 164 164 162 174 175 166 190 183 176 195 145 142 155 157 159 156 150 157 173 187 180 165 163 159
199 198 213 211 227 213 229 230 216 243 239 215 194 172 161 164 158 158 158 160 159 160 158 163 167 164 163 167 167 161 142 171 168 155 159 142 153 152 160 157 156 154 155 162 170 176 171 178 169
200 208 197 201 199 255 217 217 6 286 29 220 199 154 159 162 158 159 160 161 160 164 161 166 169 167 166 169 161 143 129 156 170 146 120 127 138 135 155 155 150 150 152 155 160 164 167 162 148